• Join FlightAware (Why Join?)
  • Login
  • US Flag 
02:19AM EDT


 

Airport Tracker/Info


-or-


 

Live Flight TrackerFlight Track Log ✈ DAL6057 ✈ 11-Apr-2013 ✈ KCMH - KDTW

Flight Track Log - Related Links

Times and Time Zones

All times are in EDT time to prevent confusion due to time zone crossing. See the DAL6057 flight status page for this flight to view local times or setup timezone preferences in your user account.

Time Position Orientation Groundspeed Altitude Reporting Facility
EDT Latitude Longitude Course Direction KTS MPH feet Rate Location/Type
06:51AM 40.0028 -82.8422 90° East 183 211 2,100  Level Indianapolis Center
06:52AM 40.0031 -82.7769 90° East 208 239 3,400 1,320 Climbing Indianapolis Center
06:52AM 40.0050 -82.7658 77° East 211 243 3,500 1,380 Climbing Indianapolis Center
06:53AM 40.0511 -82.7003 47° Northeast 272 313 5,200 1,920 Climbing Indianapolis Center
06:54AM 40.1250 -82.7306 343° North 276 318 7,500 2,400 Climbing Indianapolis Center
06:55AM 40.2094 -82.7783 337° Northwest 283 326 10,100 2,520 Climbing Indianapolis Center
06:56AM 40.2758 -82.8300 329° Northwest 276 318 12,700 1,920 Climbing Indianapolis Center
06:57AM 40.3419 -82.8808 330° Northwest 273 314 14,000 540 Climbing Indianapolis Center
06:58AM 40.4236 -82.9411 331° Northwest 326 375 13,900 -60 Descending Indianapolis Center
06:59AM 40.5103 -83.0078 330° Northwest 352 405 13,900  Level Indianapolis Center
07:00AM 40.5961 -83.0739 330° Northwest 345 397 14,000  Climbing Indianapolis Center
07:01AM 40.6806 -83.1367 331° Northwest 344 396 14,000 -120 Level Indianapolis Center
07:01AM 40.7050 -83.1578 327° Northwest 343 395 13,900 -120 Descending Cleveland Center
07:02AM 40.7892 -83.2186 331° Northwest 343 395 13,900  Level Cleveland Center
07:03AM 40.8711 -83.2853 328° Northwest 343 395 13,900  Level Cleveland Center
07:04AM 40.9489 -83.3461 329° Northwest 327 376 13,900  Level Cleveland Center
07:05AM 41.0267 -83.4044 331° Northwest 327 376 13,900  Level Cleveland Center
07:06AM 41.1000 -83.4656 328° Northwest 322 371 14,000  Climbing Cleveland Center
07:07AM 41.1608 -83.5344 320° Northwest 309 356 14,000  Level Cleveland Center
07:08AM 41.1583 -83.6364 268° West 256 295 14,000  Level Cleveland Center
07:09AM 41.1700 -83.7361 279° West 261 300 14,000  Level Cleveland Center
07:10AM 41.2133 -83.8350 300° West 278 320 14,000  Level Cleveland Center
07:11AM 41.2692 -83.9178 312° West 302 348 14,000 -60 Level Cleveland Center
07:12AM 41.3339 -83.9875 321° Northwest 302 348 13,900 -60 Descending Cleveland Center
07:13AM 41.3906 -84.0486 321° Northwest 286 329 13,900  Level Cleveland Center
07:14AM 41.4492 -84.1072 323° Northwest 274 315 13,900  Level Cleveland Center
07:15AM 41.5056 -84.1742 318° Northwest 274 315 13,900 -180 Level Cleveland Center
07:16AM 41.5681 -84.2414 321° Northwest 274 315 13,600 -480 Descending Cleveland Center
07:17AM 41.6372 -84.2897 332° Northwest 279 321 13,000 -360 Descending Cleveland Center
07:18AM 41.7181 -84.3083 350° North 295 339 13,000 -120 Level Cleveland Center
07:19AM 41.7697 -84.3169 353° North 290 334 12,900 -300 Descending Cleveland Center
07:19AM 41.7994 -84.3075 13° North 286 329 12,700 -840 Descending Cleveland Center
07:20AM 41.8183 -84.2333 71° East 337 388 12,100 -720 Descending Cleveland Center
07:20AM 41.8178 -84.1858 91° East 229 264 12,000 -120 Descending Cleveland Center
07:21AM 41.8219 -84.1222 85° East 324 373 12,000  Level Cleveland Center
07:21AM 41.8236 -84.0664 88° East 261 300 12,000  Level Cleveland Center
07:22AM 41.8467 -83.9953 66° East 334 384 12,000 -600 Level Cleveland Center
07:22AM 41.8481 -83.9506 88° East 295 339 11,400 -1,860 Descending Cleveland Center
07:23AM 41.8544 -83.8700 84° East 320 368 10,100 -1,920 Descending Cleveland Center
07:23AM 41.8556 -83.8339 88° East 307 353 9,500 -1,800 Descending Cleveland Center
07:24AM 41.8661 -83.7564 80° East 317 365 8,300 -1,800 Descending Cleveland Center
07:24AM 41.8692 -83.7147 84° East 313 360 7,700 -1,320 Descending Cleveland Center
07:25AM 41.9044 -83.6494 54° Northeast 290 334 7,000 -1,020 Descending Cleveland Center
07:25AM 41.9133 -83.6247 64° Northeast 284 327 6,700 -1,020 Descending Cleveland Center
07:26AM 41.9417 -83.5758 52° Northeast 250 288 6,100 -720 Descending Cleveland Center
07:26AM 41.9567 -83.5597 39° Northeast 262 302 6,000 -600 Descending Cleveland Center
07:27AM 41.9947 -83.5392 22° Northeast 218 251 5,500 -900 Descending Cleveland Center
07:27AM 42.0119 -83.5206 39° Northeast 225 259 5,100 -1,200 Descending Cleveland Center
07:28AM 42.0436 -83.5022 23° Northeast 218 251 4,400 -1,200 Descending Cleveland Center
07:29AM 42.0925 -83.4653 29° Northeast 168 193 3,300 -1,020 Descending Cleveland Center
07:30AM 42.1286 -83.4389 28° Northeast 152 175 2,400 -840 Descending Cleveland Center
07:31AM 42.1647 -83.4125 28° Northeast 140 161 1,600 -840 Descending Cleveland Center
07:32AM 42.1986 -83.3917 24° Northeast 139 160 800 -840 Descending Cleveland Center
07:34AM 42.2000 -83.3500 48° Northeast  Level FlightAware Approximate